Regional Weather Roundup
Issued by NWS Green Bay, WI

Home | Current Version | Previous Version | Graphics & Text | Print | Product List | Glossary Off
Versions: 1 2 3 4 5 6 7 8 9 10 11 12 13 14 15 16 17 18 19 20 21 22 23 24 25 26 27 28 29 30 31 32 33 34 35 36 37 38 39 40 41 42 43 44 45 46 47 48 49 50

000
ASUS43 KGRB 040800
RWRGRB

NORTH-CENTRAL AND NORTHEAST WISCONSIN REGIONAL WEATHER ROUNDUP
NATIONAL WEATHER SERVICE GREEN BAY WI
300 AM CDT TUE AUG 04 2015

WIZ005-009-010>012-018-019-040900-
NORTH CENTRAL WISCONSIN

CITY           SKY/WX    TMP DP  RH WIND       PRES   REMARKS
IRONWOOD       CLOUDY    57  57 100 SW6       29.86S
MANITOWISH WTR NOT AVBL
ARBOR VITAE    NOT AVBL
EAGLE RIVER    NOT AVBL
LAND O LAKES   NOT AVBL
RHINELANDER      N/A     54  52  93 W5        29.90F
PHILLIPS       PTCLDY    55  54  94 CALM      29.91S
ANTIGO         NOT AVBL
TOMAHAWK       NOT AVBL
MERRILL        NOT AVBL
$$

WIZ013-073-040900-
NORTHEAST WISCONSIN

CITY           SKY/WX    TMP DP  RH WIND       PRES   REMARKS
IRON MOUNTAIN  CLOUDY    58  55  90 W5        29.85S
MARINETTE      PTCLDY    59  54  82 W5        29.85S
$$

WIZ017-030-035>037-045-040900-
CENTRAL WISCONSIN

CITY           SKY/WX    TMP DP  RH WIND       PRES   REMARKS
MEDFORD        NOT AVBL
WAUSAU         CLOUDY    63  55  75 NW7       29.88S
MOSINEE        NOT AVBL
MARSHFIELD     PTCLDY    59  52  77 NW5       29.91S
WISC RAPIDS    MOCLDY    60  51  72 NW3       29.91R
STEVENS POINT  NOT AVBL
WAUPACA        NOT AVBL
SHAWANO        NOT AVBL
CLINTONVILLE   CLOUDY    55  54  94 NE6       29.89R
$$

WIZ038-039-048-051-040900-
FOX VALLEY

CITY           SKY/WX    TMP DP  RH WIND       PRES   REMARKS
NWS GREEN BAY  PTCLDY    57  55  93 W6        29.88S
APPLETON       NOT AVBL
OSHKOSH        CLEAR     61  52  72 W3        29.88S
FOND DU LAC    CLEAR     58  53  84 SW6       29.89F
$$

WIZ022-050-052-040900-
EAST CENTRAL WISCONSIN

CITY           SKY/WX    TMP DP  RH WIND       PRES   REMARKS
STURGEON BAY   CLOUDY    61  54  77 W5        29.89R
MANITOWOC      NOT AVBL
SHEBOYGAN      MOCLDY    58  55  90 SW3       29.89S
$$

LMZ563-521-522-541>543-040900-
LAKESHORE

STATION/POSITION TIME  TEMP    WIND        PRES    VSBY  WAVE
                       AIR SEA DIR/SP/G                  HT/PER
                 (UTC) (F)     (DEG/KT/KT) (MB)    (MI)  (FT/S)
SHEBOYGAN LKSHOR 0700   65     250/  8/  8 1012.1S
KEWAUNEE LKSHORE 0700   60     300/  4/  5 1011.0R
ALGOMA MARINA    0712             CALM       N/A
NORTHPORT PIER   0700   64     290/  9/ 14 1010.5F
N MID LAKE BUOY  0650   65 68  270/ 14/ 16 1009.7F         1
S GREEN BAY BUOY 0700   64 71  270/  8/ 10 1012.7R
SISTER BAY LKSHO 0718   66     340/ 17/ 19   N/A
CHAMBERS ISLAND  0700   63     270/  3/  6 1010.8S
MENOMINEE LKSHOR 0700   62     260/  5/  9 1011.8R
$$



USA.gov is the U.S. government's official web portal to all federal, state and local government web resources and services.